Content
SEND FEEDBACK

Daily
Averages
Monthly
Summary
United States of America

MERIZO, GUAM


Home > North America > United States > Guam
Elevation: 3 meters     Latitude: 13 14N     Longitude: 144 39E

WEATHER
 
SELECT A DAY
Number of Records: 351,709;   Date Range: 1/1/95 - 10/22/14
 
SHARE

PRINT THIS DATA

[ ← Previous Day ]
WEATHER ALMANAC - 10 FEBRUARY, 2013
[ Next Day → ]
[ °F ]   °C
Weather ElementAverageHighLow
Temperature25.6 °C29 °C (1:29 pm)24 °C (8:43 pm)
Dewpoint23.1 °C24 °C (4:30 am)22 °C (11:13 pm)
Humidity86.1 %94 % (4:30 am)70 % (12:55 pm)
Barometer1011.2 hPa1013.2 hPa (9:51 am)1009.5 hPa (3:55 pm)
Wind Speed21.2 km/h35.2 km/h (8:27 pm)
Wind Gust46.3 km/h (8:27 pm)
Weather ElementAverage
Visibility15.6 km
Wind DirectionENE (68.3 °)

Weather ElementTotal
Precipitation3.56 mm
Cooling Degree Days8.2 (Base 18.3)
Growing Degree Days16.5 (Base 10)
Averaged from 126 records on 10 February, 2013
WEATHER CONDITIONS BREAKOUT
WIND DIRECTION BREAKOUT
WEATHER BY HOUR - 10 FEBRUARY, 2013
[ °F ]   °C
Local TimeTemperatureDewpointHumidityBarometerVisibilityWind DirectionWind SpeedGust SpeedPrecipitationEventsConditions
12:40 AM25 °C23 °C89 %1011.5 hPa16.1 kmENE (60°)16.7 km/hMostly Cloudy
12:47 AM25 °C23 °C89 %1011.5 hPa16.1 kmENE (70°)16.7 km/hScattered Clouds
12:55 AM25 °C23.2 °C90 %1011.2 hPa16.1 kmENE (60°)16.7 km/hScattered Clouds
1:55 AM24.9 °C23.4 °C91 %1010.8 hPa16.1 kmENE (60°)14.8 km/hScattered Clouds
1:58 AM25 °C23 °C89 %1010.8 hPa16.1 kmENE (60°)14.8 km/hMostly Cloudy
2:31 AM25 °C23 °C89 %1010.5 hPa16.1 kmENE (60°)18.5 km/hMostly Cloudy
2:32 AM25 °C23 °C89 %1010.5 hPa16.1 kmENE (60°)16.7 km/hScattered Clouds
2:55 AM24.8 °C23.2 °C91 %1010.5 hPa16.1 kmENE (60°)16.7 km/hScattered Clouds
2:59 AM25 °C23 °C89 %1010.5 hPa16.1 kmENE (60°)16.7 km/hMostly Cloudy
3:10 AM25 °C23 °C89 %1010.5 hPa16.1 kmENE (60°)14.8 km/hMostly Cloudy
3:34 AM25 °C23 °C89 %1010.2 hPa16.1 kmENE (60°)18.5 km/hMostly Cloudy
3:36 AM25 °C23 °C89 %1010.2 hPa16.1 kmENE (70°)14.8 km/hScattered Clouds
3:38 AM25 °C23 °C89 %1010.2 hPa16.1 kmENE (70°)13 km/hMostly Cloudy
3:47 AM25 °C23 °C89 %1010.2 hPa16.1 kmENE (70°)18.5 km/hMostly Cloudy
3:54 AM25 °C23 °C89 %1010.2 hPa16.1 kmENE (60°)18.5 km/hScattered Clouds
3:55 AM25 °C23.3 °C90 %1010.2 hPa16.1 kmENE (60°)18.5 km/hScattered Clouds
4:00 AM25 °C23 °C89 %1010.2 hPa14.5 kmENE (60°)18.5 km/hRainLight Rain
4:11 AM25 °C23 °C89 %1010.2 hPa16.1 kmENE (70°)13 km/hMostly Cloudy
4:14 AM25 °C23 °C89 %1010.2 hPa16.1 kmEast (80°)22.2 km/hMostly Cloudy
4:17 AM25 °C23 °C89 %1010.2 hPa16.1 kmENE (70°)18.5 km/hMostly Cloudy
4:26 AM25 °C23 °C89 %1010.2 hPa16.1 kmEast (80°)16.7 km/hMostly Cloudy
4:30 AM25 °C24 °C94 %1010.2 hPa16.1 kmENE (70°)16.7 km/hMostly Cloudy
4:33 AM25 °C24 °C94 %1010.2 hPa16.1 kmENE (70°)16.7 km/hMostly Cloudy
4:36 AM25 °C24 °C94 %1010.2 hPa16.1 kmENE (70°)14.8 km/hScattered Clouds
4:47 AM25 °C23 °C89 %1010.2 hPa16.1 kmENE (70°)18.5 km/hMostly Cloudy
4:49 AM25 °C23 °C89 %1010.2 hPa16.1 kmEast (80°)18.5 km/hMostly Cloudy
4:53 AM25 °C24 °C94 %1010.2 hPa16.1 kmENE (60°)20.4 km/hMostly Cloudy
4:54 AM25 °C24 °C94 %1010.2 hPa16.1 kmENE (60°)20.4 km/hMostly Cloudy
4:55 AM24.9 °C23.6 °C92 %1010.2 hPa16.1 kmENE (60°)20.4 km/h0 mmMostly Cloudy
4:56 AM25 °C24 °C94 %1010.2 hPa16.1 kmENE (60°)20.4 km/hMostly Cloudy
5:43 AM25 °C23 °C89 %1010.8 hPa16.1 kmENE (70°)16.7 km/hMostly Cloudy
5:48 AM25 °C23 °C89 %1010.8 hPa16.1 kmENE (70°)22.2 km/hMostly Cloudy
5:53 AM25 °C23 °C89 %1010.8 hPa16.1 kmEast (80°)22.2 km/hMostly Cloudy
5:55 AM25 °C22.9 °C88 %1010.8 hPa16.1 kmEast (80°)18.5 km/hMostly Cloudy
5:56 AM25 °C23 °C89 %1010.8 hPa16.1 kmEast (80°)16.7 km/hMostly Cloudy
5:58 AM25 °C23 °C89 %1010.8 hPa16.1 kmEast (80°)16.7 km/hMostly Cloudy
6:00 AM25 °C23 °C89 %1010.8 hPa16.1 kmEast (80°)18.5 km/hMostly Cloudy
6:04 AM25 °C23 °C89 %1010.8 hPa16.1 kmEast (80°)20.4 km/hMostly Cloudy
6:08 AM25 °C23 °C89 %1011.2 hPa16.1 kmEast (80°)16.7 km/hMostly Cloudy
6:12 AM25 °C23 °C89 %1011.2 hPa16.1 kmENE (70°)22.2 km/hMostly Cloudy
6:21 AM25 °C23 °C89 %1011.2 hPa16.1 kmEast (80°)20.4 km/hMostly Cloudy
6:28 AM25 °C23 °C89 %1011.2 hPa16.1 kmENE (70°)18.5 km/hMostly Cloudy
6:29 AM25 °C23 °C89 %1011.2 hPa16.1 kmENE (70°)18.5 km/hMostly Cloudy
6:32 AM25 °C23 °C89 %1011.5 hPa16.1 kmEast (80°)16.7 km/hMostly Cloudy
6:35 AM25 °C23 °C89 %1011.5 hPa16.1 kmEast (80°)20.4 km/hMostly Cloudy
6:41 AM25 °C23 °C89 %1011.5 hPa16.1 kmEast (80°)18.5 km/hMostly Cloudy
6:46 AM25 °C23 °C89 %1011.5 hPa16.1 kmEast (80°)18.5 km/hScattered Clouds
6:53 AM25 °C23 °C89 %1011.5 hPa16.1 kmENE (70°)16.7 km/hMostly Cloudy
6:55 AM25 °C23 °C89 %1011.5 hPa16.1 kmENE (70°)22.2 km/hScattered Clouds
7:01 AM25 °C23 °C89 %1011.9 hPa16.1 kmENE (70°)20.4 km/hMostly Cloudy
7:03 AM25 °C23 °C89 %1011.9 hPa16.1 kmENE (70°)18.5 km/hScattered Clouds
7:07 AM25 °C23 °C89 %1011.9 hPa16.1 kmEast (80°)16.7 km/hMostly Cloudy
7:10 AM25 °C23 °C89 %1011.9 hPa16.1 kmENE (70°)16.7 km/hScattered Clouds
7:14 AM25 °C23 °C89 %1011.9 hPa16.1 kmEast (80°)20.4 km/hMostly Cloudy
7:18 AM25 °C23 °C89 %1011.9 hPa16.1 kmENE (70°)20.4 km/hMostly Cloudy
7:22 AM25 °C23 °C89 %1011.9 hPa16.1 kmENE (70°)20.4 km/hMostly Cloudy
7:41 AM26 °C23 °C83 %1012.2 hPa16.1 kmENE (70°)24.1 km/hScattered Clouds
7:55 AM25.9 °C23.3 °C85 %1012.2 hPa16.1 kmENE (70°)22.2 km/hScattered Clouds
8:55 AM26.7 °C23.5 °C82 %1012.9 hPa16.1 kmENE (70°)24.1 km/hScattered Clouds
9:51 AM27 °C23 °C79 %1013.2 hPa16.1 kmENE (70°)22.2 km/hMostly Cloudy
9:55 AM27.6 °C23.4 °C78 %1013.2 hPa16.1 kmENE (70°)25.9 km/hMostly Cloudy
10:10 AM27 °C23 °C79 %1013.2 hPa16.1 kmENE (70°)25.9 km/hScattered Clouds
10:12 AM28 °C23 °C74 %1012.9 hPa16.1 kmENE (70°)24.1 km/hMostly Cloudy
10:22 AM28 °C23 °C74 %1012.9 hPa16.1 kmEast (80°)22.2 km/hScattered Clouds
10:55 AM27.9 °C23.1 °C75 %1012.5 hPa16.1 kmENE (70°)20.4 km/hPartly Cloudy
11:55 AM28.3 °C23.2 °C74 %1011.9 hPa16.1 kmEast (80°)20.4 km/hClear
12:55 PM28.9 °C23 °C70 %1011.2 hPa16.1 kmENE (70°)22.2 km/hScattered Clouds
1:29 PM29 °C23 °C70 %1010.8 hPa16.1 kmENE (60°)27.8 km/hMostly Cloudy
1:35 PM29 °C23 °C70 %1010.8 hPa16.1 kmEast (80°)27.8 km/hScattered Clouds
1:36 PM29 °C23 °C70 %1010.8 hPa16.1 kmEast (80°)29.6 km/hMostly Cloudy
1:40 PM29 °C23 °C70 %1010.5 hPa16.1 kmEast (80°)25.9 km/hScattered Clouds
1:41 PM29 °C23 °C70 %1010.5 hPa16.1 kmENE (70°)25.9 km/hMostly Cloudy
1:53 PM29 °C23 °C70 %1010.5 hPa16.1 kmENE (70°)27.8 km/hScattered Clouds
1:55 PM28.8 °C23.2 °C72 %1010.5 hPa16.1 kmENE (70°)24.1 km/hScattered Clouds
2:55 PM28.4 °C23.2 °C73 %1009.8 hPa16.1 kmENE (70°)24.1 km/hScattered Clouds
3:55 PM28.6 °C22.7 °C70 %1009.5 hPa16.1 kmENE (60°)20.4 km/hClear
4:55 PM27.8 °C22.2 °C71 %1010.2 hPa16.1 kmENE (70°)24.1 km/hClear
5:55 PM26.1 °C22.8 °C82 %1010.2 hPa16.1 kmENE (60°)20.4 km/hScattered Clouds
6:00 PM26 °C23 °C83 %1010.5 hPa16.1 kmENE (70°)22.2 km/hMostly Cloudy
6:02 PM26 °C23 °C83 %1010.5 hPa16.1 kmENE (70°)24.1 km/hScattered Clouds
6:05 PM26 °C23 °C83 %1010.5 hPa16.1 kmENE (60°)24.1 km/hMostly Cloudy
6:11 PM26 °C23 °C83 %1010.5 hPa16.1 kmENE (70°)20.4 km/hScattered Clouds
6:43 PM26 °C23 °C83 %1010.5 hPa16.1 kmENE (60°)18.5 km/hMostly Cloudy
6:55 PM25.7 °C22.8 °C84 %1010.5 hPa16.1 kmENE (70°)22.2 km/hMostly Cloudy
7:02 PM26 °C23 °C83 %1010.8 hPa16.1 kmENE (70°)20.4 km/hScattered Clouds
7:03 PM26 °C23 °C83 %1010.8 hPa16.1 kmENE (60°)18.5 km/hMostly Cloudy
7:19 PM26 °C23 °C83 %1010.8 hPa16.1 kmENE (60°)24.1 km/hMostly Cloudy
7:22 PM26 °C23 °C83 %1011.2 hPa16.1 kmENE (60°)20.4 km/hMostly Cloudy
7:26 PM26 °C23 °C83 %1010.8 hPa16.1 kmENE (60°)20.4 km/hRainLight Rain
7:34 PM26 °C23 °C83 %1011.2 hPa16.1 kmNE (50°)25.9 km/hRainLight Rain
7:37 PM26 °C23 °C83 %1011.2 hPa16.1 kmENE (60°)24.1 km/hMostly Cloudy
7:55 PM25.7 °C22.9 °C84 %1011.2 hPa16.1 kmENE (70°)22.2 km/h0 mmMostly Cloudy
7:57 PM26 °C23 °C83 %1011.2 hPa16.1 kmEast (80°)22.2 km/hMostly Cloudy
7:58 PM26 °C23 °C83 %1011.2 hPa16.1 kmEast (80°)20.4 km/hLight Drizzle
7:59 PM26 °C23 °C83 %1011.2 hPa16.1 kmEast (80°)18.5 km/hLight Drizzle
8:02 PM26 °C23 °C83 %1011.2 hPa16.1 kmENE (70°)24.1 km/hLight Drizzle
8:07 PM26 °C23 °C83 %1011.2 hPa16.1 kmENE (60°)18.5 km/hMostly Cloudy
8:27 PM26 °C23 °C83 %1011.5 hPa12.9 kmENE (60°)35.2 km/h46.3 km/hRainLight Rain
8:43 PM24 °C23 °C94 %1011.5 hPa16.1 kmENE (60°)18.5 km/hMostly Cloudy
8:48 PM25 °C23 °C89 %1011.5 hPa16.1 kmENE (60°)18.5 km/hMostly Cloudy
8:49 PM25 °C23 °C89 %1011.5 hPa14.5 kmENE (60°)18.5 km/hRainLight Rain
8:50 PM25 °C23 °C89 %1011.5 hPa14.5 kmENE (60°)16.7 km/hRainRain
8:55 PM24.8 °C23.7 °C94 %1011.5 hPa14.5 kmENE (60°)22.2 km/h1.27 mmRainLight Rain
9:00 PM25 °C23 °C89 %1011.5 hPa16.1 kmENE (70°)25.9 km/h35.2 km/hMostly Cloudy
9:10 PM25 °C23 °C89 %1011.5 hPa16.1 kmENE (70°)24.1 km/hMostly Cloudy
9:22 PM25 °C23 °C89 %1011.5 hPa16.1 kmEast (80°)25.9 km/h33.3 km/hScattered Clouds
9:30 PM25 °C23 °C89 %1011.5 hPa16.1 kmENE (60°)24.1 km/hMostly Cloudy
9:33 PM25 °C23 °C89 %1011.9 hPa16.1 kmENE (60°)24.1 km/hScattered Clouds
9:38 PM25 °C23 °C89 %1011.9 hPa16.1 kmENE (70°)24.1 km/hMostly Cloudy
9:39 PM25 °C23 °C89 %1011.9 hPa16.1 kmENE (70°)27.8 km/hScattered Clouds
9:41 PM25 °C23 °C89 %1011.9 hPa16.1 kmENE (70°)24.1 km/hMostly Cloudy
9:55 PM25.2 °C22.7 °C86 %1011.9 hPa16.1 kmEast (80°)22.2 km/h0 mmMostly Cloudy
10:21 PM25 °C23 °C89 %1011.9 hPa14.5 kmENE (60°)33.3 km/hLight Drizzle
10:32 PM24 °C23 °C94 %1011.9 hPa14.5 kmENE (60°)25.9 km/hOvercast
10:37 PM24 °C23 °C94 %1011.9 hPa14.5 kmENE (60°)20.4 km/hOvercast
10:55 PM24.3 °C23.2 °C94 %1011.9 hPa16.1 kmNE (40°)24.1 km/h0 mmMostly Cloudy
11:04 PM25 °C23 °C89 %1011.9 hPa11.3 kmENE (60°)29.6 km/hRainLight Rain
11:06 PM24 °C23 °C94 %1011.9 hPa6.4 kmEast (80°)33.3 km/hRainLight Rain
11:13 PM24 °C22 °C89 %1011.9 hPa4 kmENE (70°)31.5 km/hRainLight Rain
11:14 PM24 °C22 °C89 %1011.9 hPa4.8 kmENE (70°)31.5 km/hRainLight Rain
11:26 PM24 °C22 °C89 %1011.9 hPa14.5 kmENE (70°)18.5 km/hLight Drizzle
11:27 PM24 °C22 °C89 %1011.9 hPa16.1 kmENE (60°)18.5 km/hMostly Cloudy
11:30 PM24 °C23 °C94 %1011.9 hPa16.1 kmENE (60°)20.4 km/hOvercast
11:37 PM25 °C23 °C89 %1011.9 hPa16.1 kmENE (60°)24.1 km/h35.2 km/hMostly Cloudy
11:43 PM25 °C23 °C89 %1011.9 hPa16.1 kmENE (60°)24.1 km/hScattered Clouds
11:55 PM24.6 °C22.7 °C89 %1011.9 hPa16.1 kmENE (60°)22.2 km/h2.29 mmScattered Clouds
Hourly data recorded from PGUA, located 0 kilometers away from Merizo, Guam







STORIES FROM OUR PARTNERS